Home

[1].2.
MP3/FLAC - Release Name, 464 releases = 65,51 GB
PREV   << 2024-04-03 >>  NEXT
 Zoomy-BRIGANTE-SINGLE-WEB-FR-2024-OND 6,12 MB OND 2024-04-03
 Zito_Mowa--Prophets_and_Kung_Fu_Pandas_EP-(SVR063)-WEB-2024-dh 65,48 MB dh 2024-04-03
 Zero_Dark-Ghosted_EP-(DKR042)-WEB-2024-PTC 36,16 MB PTC 2024-04-03
 Yy-None_Taken-WEB-2024-FTD 48,54 MB FTD 2024-04-03
 Yaya_Bey--Me_And_All_My_Niggas-(BDDNL314MW)-WEB-2024-OMA 30,94 MB OMA 2024-04-03
 Xijaro_And_Pitch_With_Adara-Invisible_(Somna_Remix)-(BH14640)-16BIT-WEB-FLAC-2024-AOVF 67,83 MB AOVF 2024-04-03
 wwwavvve-Movement-(DRSS847)-WEB-2024-PTC 51,37 MB PTC 2024-04-03
 Words_x_Chuck_Chan-Dieselnoi_The_Sky_Piercing_Knee-WEB-2024-FTD 43,47 MB FTD 2024-04-03
 Wolf_Street_(OFC)_and_Palau_(OFC)-One_Step_Closer-(VR120)-WEB-2024-AFO 35,91 MB AFO 2024-04-03
 Wolf_Street_(OFC)_and_Palau_(OFC)-One_Step_Closer-(VR120)-16BIT-WEB-FLAC-2024-AFO 88,59 MB AFO 2024-04-03
 Waterr_x_The_Standouts-The_Honorable_Vol._2-WEB-2024-FTD 92,00 MB FTD 2024-04-03
 WARP_FA2E-Fly__The_Chase-(NRPFRG032)-WEB-2024-PTC 17,19 MB PTC 2024-04-03
 Waltervelt-Special_Is_My_Mind-(361SR)-SINGLE-16BIT-WEB-FLAC-2024-AFO 43,01 MB AFO 2024-04-03
 Vincent_de_Moor-Flowtation_(Dan_Stone_Remix)-(ARCV233)-WEB-2024-AFO 29,84 MB AFO 2024-04-03
 Verdagris--Hidden_Agenda_EP-(SVR097)-WEB-2024-dh 39,41 MB dh 2024-04-03
 VA_-_The_Best_Of_JamX_And_De_Leon_(Extended_Versions)-WEB-2018-iDC 795,18 MB iDC 2024-04-03
 VA_-_Tech_House_Heroes_Vol_11-(LWTHH11)-WEB-2024-ZzZz 319,12 MB ZzZz 2024-04-03
 VA_-_Techno_Paris_Pulse-(KIESO582)-WEB-2024-ZzZz 100,49 MB ZzZz 2024-04-03
 VA-Warm_Up_Essentials_Vol_1-(KITT2591)-WEB-2024-AFO 104,99 MB AFO 2024-04-03
 VA-Warm_Up_Essentials_Vol_1-(KITT2591)-16BIT-WEB-FLAC-2024-AFO 309,91 MB AFO 2024-04-03
 VA-VA_We_Go_On_A_Picnic_Vol_3-(PDM010)-WEB-2024-BABAS 92,06 MB BABAS 2024-04-03
 VA-Various_Artists_EP-(WHR010)-WEB-2024-EBM 76,91 MB EBM 2024-04-03
 VA-Through_The_Loophole_Vol.2-(DBRVA004)-WEB-2024-BABAS 140,96 MB BABAS 2024-04-03
 VA-Three_of_a_Kind_025-(3AV426)-WEB-2024-AFO 96,70 MB AFO 2024-04-03
 VA-Three_of_a_Kind_025-(3AV426)-16BIT-WEB-FLAC-2024-AFO 278,60 MB AFO 2024-04-03
 VA-The_Enjoy_Story-WEB-1988-UVU 456,37 MB UVU 2024-04-03
 VA-Summer_Cuts_LTD-(UGLTD014)-WEB-2024-dh 93,03 MB dh 2024-04-03
 VA-Shukra-(REP031)-WEB-2024-PTC 60,84 MB PTC 2024-04-03
 VA-Selville_Selects_Vol_02-(SVR093)-WEB-2024-dh 73,49 MB dh 2024-04-03
 VA-Selville_Selects_Vol_01-(SVR078)-WEB-2024-dh 58,37 MB dh 2024-04-03
 VA-Rappers_Enjoyment-Greatest_Rap_Hits_From_125th_Harlem-WEB-1984-UVU 98,27 MB UVU 2024-04-03
 VA-PHANTASOS_02-(ONEIROS006)-WEB-2024-BABAS 100,75 MB BABAS 2024-04-03
 VA-Perils_Of_Self_Betterment-WEB-2024-BABAS 95,07 MB BABAS 2024-04-03
 VA-Old_School_Basic-WEB-1995-UVU 97,81 MB UVU 2024-04-03
 VA-Music_From_The_Motion_Picture_For_Love_Of_The_Game-OST-CD-FLAC-1999-CALiFLAC 381,71 MB CALiFLAC 2024-04-03
 VA-Music_From_The_Motion_Picture_For_Love_Of_The_Game-OST-1999-CR_INT 110,21 MB CR_INT 2024-04-03
 VA-Music_From_The_Miramax_Motion_Picture_Gangs_Of_New_York-OST-CD-FLAC-2002-CALiFLAC 308,73 MB CALiFLAC 2024-04-03
 VA-Music_From_The_Miramax_Motion_Picture_Gangs_Of_New_York-OST-2002-CR_INT 105,28 MB CR_INT 2024-04-03
 VA-KT_VA-006-(KTVA006)-24BIT-WEB-FLAC-2024-BABAS 616,24 MB BABAS 2024-04-03
 VA-Groovestone_Chronicles-MRVA001-WEB-2024-WAV 119,77 MB WAV 2024-04-03
 VA-Groovestone_Chronicles-MRVA001-16BIT-WEB-FLAC-2024-WAVED 333,84 MB WAVED 2024-04-03
 VA-Goblin_Jazz_Banquet_EP-(CLS177)-24BIT-WEB-FLAC-2016-BABAS 247,86 MB BABAS 2024-04-03
 VA-Freejack_Soundtrack-OST-CD-FLAC-1992-CALiFLAC 277,08 MB CALiFLAC 2024-04-03
 VA-Freejack_Soundtrack-OST-1992-CR_INT 76,40 MB CR_INT 2024-04-03
 VA-Fokuz_Recap_2023-(FOKUZRECAP2023)-24BIT-WEB-FLAC-2023-BABAS 1,22 GB BABAS 2024-04-03
 VA-FabricLive_24__Diplo-CD-FLAC-2005-WRS 460,38 MB WRS 2024-04-03
 VA-Enjoy_Records_Story-WEB-2012-UVU 237,44 MB UVU 2024-04-03
 VA-DIGITAL_ESCAPE_VOL_001-(AKELA011)-WEB-2024-BABAS 136,24 MB BABAS 2024-04-03
 VA-Chilled_Out-(BTZ576)-WEB-2024-dh 130,83 MB dh 2024-04-03
 VA-BNJ_Serie_3-(BNJS003)-WEB-2024-BABAS 168,19 MB BABAS 2024-04-03
 VA-Better_Days_EP-(FOKUZ20093)-24BIT-WEB-FLAC-2020-BABAS 868,23 MB BABAS 2024-04-03
 VA-A_Pimps_Perspective-Boss_Game_And_Senior_Citizen_Ism-WEB-2019-RAGEMP3 212,61 MB RAGEMP3 2024-04-03
 Troyder--Bodega_EP-(SVR071)-WEB-2024-dh 55,93 MB dh 2024-04-03
 Trevor_G--Eye_Wanna_See_EP-(SVR083)-WEB-2024-dh 48,04 MB dh 2024-04-03
 Treacherous_Three-The_Body_Rock-Single-WEB-1980-UVU 28,31 MB UVU 2024-04-03
 Treacherous_Three-Feel_The_Heartbeat-Single-WEB-1981-UVU 26,28 MB UVU 2024-04-03
 Treacherous_Three-At_The_Party-Single-WEB-1980-UVU 27,96 MB UVU 2024-04-03
 Tooty_Bang-Bang_Season-WEB-2019-RAGEMP3 107,76 MB RAGEMP3 2024-04-03
 Tooty_Bang-Bang_Bang-WEB-2018-RAGEMP3 69,79 MB RAGEMP3 2024-04-03
 Toneshifterz_Ft._Noubya_-_Speed_Of_Light_(Edit)-SINGLE-WEB-2024-UTNG 10,54 MB UTNG 2024-04-03
 Timerman-90_EP-(UKR355)-WEB-2024-PTC 49,67 MB PTC 2024-04-03
 The_Wash-Voyage-(ALLEY259)-WEB-2024-AFO 69,17 MB AFO 2024-04-03
 The_Wash-Voyage-(ALLEY259)-16BIT-WEB-FLAC-2024-AFO 213,19 MB AFO 2024-04-03
 The_Satum-You_Need_More-(LISZT367)-WEB-2024-BABAS 40,29 MB BABAS 2024-04-03
 The_Purge_Ft._Ava_Silver_-_BEYOND_TRIPPIN_(Edit)-SINGLE-WEB-2024-UTNG 6,04 MB UTNG 2024-04-03
 The_Prescriber-Wasting_Time-(ASRDS011)-WEB-2024-PTC 59,87 MB PTC 2024-04-03
 The_Musalini_and_Cookin_Soul-Mackaroni-WEB-2024-UVU 59,18 MB UVU 2024-04-03
 The_KVB--Tremors-(INV311DS03)-WEB-2024-OMA 24,09 MB OMA 2024-04-03
 The_Black_Keys_-_Ohio_Players-2024-MOD 80,04 MB MOD 2024-04-03
 The_Black_Keys-Ohio_Players-CD-FLAC-2024-MOD 317,09 MB MOD 2024-04-03
 The_Beatles-Yellow_Submarine-REMASTERED-16BIT-WEB-FLAC-2015-OBZEN 223,70 MB OBZEN 2024-04-03
 The_Beatles-With_The_Beatles-REMASTERED-16BIT-WEB-FLAC-2015-OBZEN 224,60 MB OBZEN 2024-04-03
 The_Beatles-Please_Please_Me-REMASTERED-16BIT-WEB-FLAC-2015-OBZEN 197,78 MB OBZEN 2024-04-03
 The_Beatles-Beatles_For_Sale-REMASTERED-16BIT-WEB-FLAC-2015-OBZEN 218,64 MB OBZEN 2024-04-03
 The_Band_Of_The_Hawk-There_Is_No_Tomorrow-WEB-2024-UVU 97,61 MB UVU 2024-04-03
 Theophonik--Dvbst_EP-(SVR088)-WEB-2024-dh 49,75 MB dh 2024-04-03
 ThabzTwentyTwo--Fear_No_Man_EP-(SVR096)-WEB-2024-dh 49,29 MB dh 2024-04-03
 Technotonic-Spaceroom-(SYN102)-SINGLE-WEB-2024-PTC 14,65 MB PTC 2024-04-03
 SUUNE-Pitcha__Secret_Service-(NEX041)-WEB-2024-PTC 20,14 MB PTC 2024-04-03
 Steve_Self_and_LeDeep-Devil-(RCD020)-WEB-2024-PTC 81,99 MB PTC 2024-04-03
 Steve_Hackett-The_Circus_And_The_Nightwhale-(IOM702)-CD-FLAC-2024-BBD 265,27 MB BBD 2024-04-03
 Steve.Hackett.The.Circus.And.The.Nightwhale.2024.COMPLETE.MBLURAY-MIDDLE 4,14 GB MIDDLE 2024-04-03
 Steel_Grooves-Legacy_EP-(MBR048)-WEB-2024-BABAS 25,79 MB BABAS 2024-04-03
 Spencer_Newell_ft._Sarah_De_Warren-(Memory_Loss_pres._LUNA_Remix)-(AVAW309)-16BIT-WEB-FLAC-2024-AOVF 73,74 MB AOVF 2024-04-03
 Sonic_Juncture-Into_The_Light-(ECSD001)-WEB-2024-PTC 86,71 MB PTC 2024-04-03
 Skream-Outside_The_Box__Skreamizm-(TEMPACD16X)-2CD-FLAC-2010-UQ 604,17 MB UQ 2024-04-03
 SKOLD_Vs._KMFDM-SKOLD_Vs._KMFDM-16BIT-WEB-FLAC-2009-OBZEN 351,90 MB OBZEN 2024-04-03
 Sinners_x_Saints-Thin_Ice-(SGR017)-WEB-1999-BABAS 39,28 MB BABAS 2024-04-03
 Simon_TG-Happy_Days_EP-(BAD038)-WEB-2024-BABAS 41,45 MB BABAS 2024-04-03
 Simon_Patterson-Do_Do_Do-(ARMAS2718)-WEB-2024-AFO 24,18 MB AFO 2024-04-03
 Silat_Beksi_x_Aman-Keep_It_Real-(RAWAX022S)-WEB-2024-BABAS 69,87 MB BABAS 2024-04-03
 Shlomi_Aber-The_Untold-BAO092-24BIT-WEB-FLAC-2024-WAVED 187,14 MB WAVED 2024-04-03
 Shlomi_Aber-The_Untold-(BAO092)-WEB-2024-PTC 51,09 MB PTC 2024-04-03
 Shlomi_Aber-The_Untold-(BAO092)-16BIT-WEB-FLAC-2024-PTC 130,74 MB PTC 2024-04-03
 Sevin-Sunday_Morning_Dub_LP-(FOKUZLP027)-24BIT-WEB-FLAC-2022-BABAS 597,85 MB BABAS 2024-04-03
 Sevin-Sironess_LP-(FOKUZLP030)-24BIT-WEB-FLAC-2023-BABAS 669,31 MB BABAS 2024-04-03
 Sevin-Panic_Therapy_EP-(FOKUZ20099)-24BIT-WEB-FLAC-2020-BABAS 254,97 MB BABAS 2024-04-03
 Sevin-Late_Night_In_Motion_EP-(FOKUZLP031)-24BIT-WEB-FLAC-2024-BABAS 721,65 MB BABAS 2024-04-03
 Sevin-From_The_Archives_EP-(FOKUZ20065)-24BIT-WEB-FLAC-2020-BABAS 542,33 MB BABAS 2024-04-03
 Sevin-Bits_and_Pieces_LP-(FOKUZLP032)-24BIT-WEB-FLAC-2024-BABAS 911,33 MB BABAS 2024-04-03
 Sevin-Access_LP-(FOKUZLP029)-24BIT-WEB-FLAC-2023-BABAS 653,08 MB BABAS 2024-04-03
 Seba-Nostalgia_EP-(FOKUZ114)-24BIT-WEB-FLAC-2022-BABAS 888,60 MB BABAS 2024-04-03
 Sandra_Nkake-Scars-2023-SNOOK 96,77 MB SNOOK 2024-04-03
 Sally_Shapiro-Somewhere_Else_(Deluxe_Edition)-WEB-2013-BABAS 232,36 MB BABAS 2024-04-03
 Sally_Shapiro-Somewhere_Else-DELUXE_EDITION-16BIT-WEB-FLAC-2013-BABAS 708,91 MB BABAS 2024-04-03
 Sally_Shapiro-Rent-WEB-2023-BABAS 56,25 MB BABAS 2024-04-03
 Sally_Shapiro-Rent-24BIT-WEB-FLAC-2023-BABAS 301,08 MB BABAS 2024-04-03
 Rxseboy-bloom-WEB-2023-ESG 42,76 MB ESG 2024-04-03
 Rxseboy-bloom-16BIT-WEBFLAC-2023-ESGFLAC 107,00 MB ESGFLAC 2024-04-03
 RVLT_-_Brain_Damage_EP-(MOUTHDATA115)-WEB-2024-SRG 28,86 MB SRG 2024-04-03
 Ruth_Goller--SKYLLUMINA-(IARC0078)-WEB-2024-OMA 104,44 MB OMA 2024-04-03
 Roots_of_Unrest-Burning_Paradise-16BIT-WEB-FLAC-2024-MOONBLOOD 256,24 MB MOONBLOOD 2024-04-03
 RoneeDeep_x_Deeper_Beats--At_My_Lowest_EP-(SVR085)-WEB-2024-dh 78,33 MB dh 2024-04-03
 Riggi_and_Piros-Lost_In_Love-(ARMAS2688)-WEB-2024-AFO 83,43 MB AFO 2024-04-03
 Riff_Ruffin-Plain_English-Hoop_And_Holler-Single-WEB-1965-UVU 13,26 MB UVU 2024-04-03
 Riff_Ruffin-If_I_Cant_Have_You-Blue_Streak-Single-WEB-1956-UVU 12,21 MB UVU 2024-04-03
 Riff_Ruffin-Home_Cookin-Hot_Waffles-Single-WEB-1965-UVU 11,57 MB UVU 2024-04-03
 Riff_Ruffin-Dig_That_Rock_And_Roll-Hucklebuck_Scratch-Single-WEB-1961-UVU 12,08 MB UVU 2024-04-03
 Riff_Ruffin-All_My_Life-Gravy_Train-Single-WEB-1959-UVU 11,58 MB UVU 2024-04-03
 Res_One_x_Mac_Lloyd-Hindsight_Hotel-WEB-2020-FTD 36,16 MB FTD 2024-04-03
 Rephlex--The_Rebirth_EP-(SVR072)-WEB-2024-dh 41,95 MB dh 2024-04-03
 Regina_Do_Santos-El_Meneito-(CD-08022)-ES-CD-FLAC-1992-CEBAD 271,35 MB CEBAD 2024-04-03
 Regina_Do_Santos-El_Meneito-(CD-08022)-ES-CD-1992-CEB 79,51 MB CEB 2024-04-03
 ReGenesis_And_Crest_-_FCKED_UP_(Edit)-SINGLE-WEB-2024-UTNG 6,55 MB UTNG 2024-04-03
 Rauq-Legalise-(LST883)-WEB-2024-PTC 32,72 MB PTC 2024-04-03
 Primo_Jab_x_Godblessbeatz-Jabpocalypto-WEB-2024-FTD 80,17 MB FTD 2024-04-03
 Posyden_-_So_Be_It_(Edit)-SINGLE-WEB-2024-UTNG 5,47 MB UTNG 2024-04-03
 Pond-9-2021-SNOOK 74,42 MB SNOOK 2024-04-03
 Pig-The_Merciless_Light-16BIT-WEB-FLAC-2022-OBZEN 389,77 MB OBZEN 2024-04-03
 Pig-The_Gospel-16BIT-WEB-FLAC-2016-OBZEN 356,92 MB OBZEN 2024-04-03
 Pig-The_Diamond_Sinners-16BIT-WEB-FLAC-2016-OBZEN 136,25 MB OBZEN 2024-04-03
 Pig-Thats_The_Way_(I_Like_It)-EP-16BIT-WEB-FLAC-2018-OBZEN 157,83 MB OBZEN 2024-04-03
 Pig-Risen-16BIT-WEB-FLAC-2018-OBZEN 409,95 MB OBZEN 2024-04-03
 Pig-Prey_and_Obey-EP-16BIT-WEB-FLAC-2017-OBZEN 239,73 MB OBZEN 2024-04-03
 Pig-Pigmata-16BIT-WEB-FLAC-2005-OBZEN 500,77 MB OBZEN 2024-04-03
 Pig-Pain_Is_God-16BIT-WEB-FLAC-2020-OBZEN 486,50 MB OBZEN 2024-04-03
 Pig-Genuine_American_Monster-REISSUE-16BIT-WEB-FLAC-2002-OBZEN 474,52 MB OBZEN 2024-04-03
 Picca_and_Mars-Nyamu-(IWR105)-WEB-2024-PTC 51,10 MB PTC 2024-04-03
 Phuture_Noize_And_B-Front_-_The_Enlightenment_(Album)-(BMS026)-WEB-2024-SRG 62,51 MB SRG 2024-04-03
 Phantom_Tail-Hybernacula-(AMBDIGI001)-WEB-2024-PTC 34,13 MB PTC 2024-04-03
 Peetu_S-Stay_With_Me-(OUT250)-16BIT-WEB-FLAC-2024-AOVF 85,65 MB AOVF 2024-04-03
 Paul_Denton-Tremor-(WAO138412)-WEB-2024-AFO 22,58 MB AFO 2024-04-03
 Panaceite-Memoria_Del_Aire-ES-CD-FLAC-2008-CEBAD 326,10 MB CEBAD 2024-04-03
 Panaceite-Memoria_Del_Aire-ES-CD-2008-CEB 98,99 MB CEB 2024-04-03
 Okolo_Tha_Don_Diva-Money_Bags-WEB-2013-RAGEMP3 121,19 MB RAGEMP3 2024-04-03
 Oath_Of_Cirion-Dragonmagick-CD-FLAC-2000-mwnd 229,49 MB mwnd 2024-04-03
 NZYZZ_-_Matthew_4-(5063483250244)-SINGLE-WEB-2024-ZzZz 2,25 MB ZzZz 2024-04-03
 NZYZZ_-_Evropa-(5063483249323)-SINGLE-WEB-2024-ZzZz 5,11 MB ZzZz 2024-04-03
 Norberth_Bezoff-The_Fog-(ARVL014)-SINGLE-WEB-2024-PTC 22,17 MB PTC 2024-04-03
 Noah_Carter-Noahs_Ark-WEB-DK-2024-PLAYLiST 102,73 MB PLAYLiST 2024-04-03
 Noah_Carter-Noahs_Ark-DK-16BIT-WEB-FLAC-2024-PLAYLiST 265,83 MB PLAYLiST 2024-04-03
 Nightdrive-Years_Will_Pass__The_Ice_Will_Melt-(REW033)-WEB-2024-BABAS 34,64 MB BABAS 2024-04-03
 Nic_Soule--Bon_Voyage_Remixed-(SVR062)-WEB-2024-dh 45,47 MB dh 2024-04-03
 Nico_de_Andrea_and_Rony_Seikaly-Lose_Your_Love-(ARMAS2726)-WEB-2024-AFO 20,47 MB AFO 2024-04-03
 Nico_de_Andrea_and_Rony_Seikaly-Lose_Your_Love-(ARMAS2726)-24BIT-WEB-FLAC-2024-AFO 113,31 MB AFO 2024-04-03
 Nicolas_Bougaieff-Secret_Room-(I2NOMU190)-WEB-2024-PTC 26,36 MB PTC 2024-04-03
 Nicky_Deep--As_Within_So_Without_EP-(SVR087)-WEB-2024-dh 76,95 MB dh 2024-04-03
 NGMA_-_Sleep_When_Im_Dead_(Edit)-SINGLE-WEB-2024-UTNG 5,45 MB UTNG 2024-04-03
 Neozar_x_Lunga_SA--Ma_Grootman-(SVR069)-SINGLE-WEB-2024-dh 14,23 MB dh 2024-04-03
 Neogent_and_Mideila-Back_To_The_Future-(TC107)-WEB-2024-PTC 45,76 MB PTC 2024-04-03
 Nelver-Green_Colours_LP-(CLSLP19001)-24BIT-WEB-FLAC-2019-BABAS 630,86 MB BABAS 2024-04-03
 Neik-Nvr_Gt_EP-(WRD0106)-WEB-2024-PTC 28,71 MB PTC 2024-04-03
 Nahtay_feat_SuperstarSketch_-_Far_Away-(NATER27967)-SINGLE-WEB-2024-ZzZz 5,66 MB ZzZz 2024-04-03
 Mount_Kimbie--Shipwreck_EP-(WARPDD350E)-WEB-2024-OMA 47,89 MB OMA 2024-04-03
 Moti_Brothers-Sentimental-(ITR171)-WEB-2024-AFO 31,17 MB AFO 2024-04-03
 Moti_Brothers-Sentimental-(ITR171)-16BIT-WEB-FLAC-2024-AFO 87,97 MB AFO 2024-04-03
 Mossed-Kenia-(DKNS051)-WEB-2024-PTC 50,84 MB PTC 2024-04-03
 Mossed-Kenia-(DKNS051)-16BIT-WEB-FLAC-2024-PTC 140,71 MB PTC 2024-04-03
 Monklorious--Swing_Picante_EP-(SVR068)-WEB-2024-dh 54,14 MB dh 2024-04-03
 Momo_Khani_and_Joseph_Kaz-Nebula-(BAM356)-SINGLE-WEB-2024-AFO 16,56 MB AFO 2024-04-03
 Momo_Khani_and_Joseph_Kaz-Nebula-(BAM356)-SINGLE-16BIT-WEB-FLAC-2024-AFO 47,86 MB AFO 2024-04-03
 Mome-Disco_Balls-(ARMAS2720)-WEB-2024-AFO 18,06 MB AFO 2024-04-03
 Miguel_Pina-Domus-(SYN100)-SINGLE-WEB-2024-PTC 17,38 MB PTC 2024-04-03
 Micro_Out-Arrow-(NEOREC279)-SINGLE-WEB-2024-PTC 14,14 MB PTC 2024-04-03
 Michael_Oberling_x_MAQman_x_Poetic_Leestar--Sanctuary-(SVR099)-WEB-2024-dh 49,03 MB dh 2024-04-03
 Michael_J._Blood-EVE_AFTER_DARK-(BLDNCTP001)-WEB-2023-BABAS 133,79 MB BABAS 2024-04-03
 Meng_Huiyuan-Life_Awards_Ceremony-WEB-CN-2024-TosK 85,69 MB TosK 2024-04-03
 MeLoX_-_Thru_The_Mind_(Edit)-SINGLE-WEB-2024-UTNG 6,23 MB UTNG 2024-04-03
 Mc_Ph.Ucker_-_Transportation-(5063483247312)-WEB-2024-ZzZz 13,75 MB ZzZz 2024-04-03
 Massianello--Hipnotizame-(PDA99)-SINGLE-WEB-2024-dh 10,22 MB dh 2024-04-03
 Marie_Davidson-Y.A.A.M._(Soulwax_Version)-(BEC5613867)-WEB-2024-PTC 21,51 MB PTC 2024-04-03
 Marco_Ridulfo_x_Massimo_Solinas--Show_Me_EP-(MSR0205B)-WEB-2024-dh 28,41 MB dh 2024-04-03
 Mapeps_Colourblind--Come_Back_EP-(SVR081)-WEB-2024-dh 78,41 MB dh 2024-04-03
 Manu_Lopez_-_Distance-(6124)-SINGLE-WEB-2024-ZzZz 8,43 MB ZzZz 2024-04-03
 Maneskin-Teatro_D_Ira_Vol._I-IT-2021-SNOOK 56,58 MB SNOOK 2024-04-03
 Maneskin-Rush_(Are_U_Coming)-2023-SNOOK 130,46 MB SNOOK 2024-04-03
 Maneskin-Il_Ballo_Della_Vita-IT-2018-SNOOK 67,39 MB SNOOK 2024-04-03
 Maneskin-Chosen-2017-SNOOK 39,47 MB SNOOK 2024-04-03
 MaKabre-Split_Personality-(DZB660)-WEB-2024-PTC 24,30 MB PTC 2024-04-03
 Macnificent_Wordplay-Rockn_Stockton-WEB-2018-RAGEMP3 95,03 MB RAGEMP3 2024-04-03
 Machacha_x_Copenhaniacs-Skyskraber-WEB-2024-FTD 65,48 MB FTD 2024-04-03
 Maarten_De_Jong-Kanua-(ARMD1767)-WEB-2024-AFO 19,12 MB AFO 2024-04-03
 M-Squared-Mind_Design-(PURVEYOR110)-WEB-2024-BABAS 42,22 MB BABAS 2024-04-03
 Lunga_SA--Dirty_Fingers_EP-(SVR075)-WEB-2024-dh 68,32 MB dh 2024-04-03
 Louis_Anima--Janes_Resident_EP-(SVR090)-WEB-2024-dh 64,67 MB dh 2024-04-03
 Lords_Of_Acid-Voodoo-U-REMASTERED_DELUXE_EDITION-16BIT-WEB-FLAC-2017-OBZEN 506,34 MB OBZEN 2024-04-03
 Lords_Of_Acid-Pretty_In_Kink-16BIT-WEB-FLAC-2018-OBZEN 313,10 MB OBZEN 2024-04-03
 Lords_Of_Acid-Pop_That_Tooshie-EP-16BIT-WEB-FLAC-2012-OBZEN 181,17 MB OBZEN 2024-04-03
 Lords_Of_Acid-Lust-REMASTERED_DELUXE_EDITION-16BIT-WEB-FLAC-2017-OBZEN 617,22 MB OBZEN 2024-04-03
 Lords_Of_Acid-Little_Mighty_Rabbit-16BIT-WEB-FLAC-2012-OBZEN 475,84 MB OBZEN 2024-04-03
 Lords_Of_Acid-Heaven_Is_An_Orgasm-REMASTERED_DELUXE_EDITION-16BIT-WEB-FLAC-2017-OBZEN 480,91 MB OBZEN 2024-04-03
 Lords_Of_Acid-Farstucker-REMASTERED_DELUXE_EDITION-16BIT-WEB-FLAC-2017-OBZEN 557,18 MB OBZEN 2024-04-03
 Lords_Of_Acid-Expand_Your_Head-16BIT-WEB-FLAC-2021-OBZEN 559,79 MB OBZEN 2024-04-03
 Lords_Of_Acid-Deep_Chills-16BIT-WEB-FLAC-2012-OBZEN 498,57 MB OBZEN 2024-04-03
 Living_Colour-Who_Shot_Ya-24BIT-44KHZ-WEB-FLAC-2016-OBZEN 520,66 MB OBZEN 2024-04-03
 Living_Colour-Whats_Your_Favorite_Color_(Remixes_B-Sides_and_Rarities)-16BIT-WEB-FLAC-2005-OBZEN 332,89 MB OBZEN 2024-04-03
 Living_Colour-Times_Up-16BIT-WEB-FLAC-1990-OBZEN 394,47 MB OBZEN 2024-04-03
 Living_Colour-The_Paris_Concert-16BIT-WEB-FLAC-2009-OBZEN 651,50 MB OBZEN 2024-04-03
 Living_Colour-The_Chair_In_The_Doorway-16BIT-WEB-FLAC-2009-OBZEN 296,90 MB OBZEN 2024-04-03
 Living_Colour-Shade-16BIT-WEB-FLAC-2017-OBZEN 368,82 MB OBZEN 2024-04-03
 Living_Colour-Pride-16BIT-WEB-FLAC-1995-OBZEN 551,43 MB OBZEN 2024-04-03
 Living_Colour-Live_From_CBGBs_(Live_At_CBGB_NYC_NY_12.18.1989)-16BIT-WEB-FLAC-2005-OBZEN 461,28 MB OBZEN 2024-04-03
 Living_Colour-Cult_Of_Personality-EP-16BIT-WEB-FLAC-1988-OBZEN 231,47 MB OBZEN 2024-04-03
 Living_Colour-Collideascope-16BIT-WEB-FLAC-2003-OBZEN 420,06 MB OBZEN 2024-04-03
 Living_Colour-CBGB_OMFUG_Masters_August_19_2005_The_Bowery_Collection-16BIT-WEB-FLAC-2008-OBZEN 502,68 MB OBZEN 2024-04-03
 Living_Colour-Biscuits-EP-16BIT-WEB-FLAC-1991-OBZEN 213,45 MB OBZEN 2024-04-03
 Lewis_Laite-Beat_Goes_Off_(Original_Mix)-(CAOS057DJ)-SINGLE-WEB-2024-AOV 10,06 MB AOV 2024-04-03
 LeruD-Global_Variations-(TOXIC501)-WEB-2024-PTC 64,03 MB PTC 2024-04-03
 Leon_Varkalis--Horn_Of_Africa_EP-(RB029)-WEB-2024-dh 44,89 MB dh 2024-04-03
 La_Biche-MiXTAPE-WEB-FR-2024-OND 91,23 MB OND 2024-04-03
 Lars_Winnerback-Neutronstjarnan-SE-CD-FLAC-2023-ERP 312,92 MB ERP 2024-04-03
 Larry_Dale-Party_Hardy_(Shakem_Up_And_Rackem_Back_And_Boogie)-Single-WEB-1965-UVU 20,73 MB UVU 2024-04-03
 Larry_Dale-Midnight_Hours-Reissue-Single-WEB-2015-UVU 12,02 MB UVU 2024-04-03
 Larry_Dale-Down_To_The_Bottom-Midnight_Hours-Reissue-Single-WEB-2010-UVU 12,65 MB UVU 2024-04-03
 Larry_Dale-Big_Muddy-The_Old_Town-Reissue-EP-WEB-2012-UVU 25,27 MB UVU 2024-04-03
 Kvadrat-The_Horrible_Dissonance_of_Oblivion-GR-16BIT-WEB-FLAC-2024-MOONBLOOD 304,26 MB MOONBLOOD 2024-04-03
 Krasa_Rosa-Lukoshko-(RVNZ21)-SINGLE-WEB-2024-AFO 16,02 MB AFO 2024-04-03
 Krasa_Rosa-Lukoshko-(RVNZ21)-SINGLE-16BIT-WEB-FLAC-2024-AFO 47,00 MB AFO 2024-04-03
 KMFDM_Vs._Pig-Sin_Sex_and_Salvation-DELUXE_EDITION_EP-16BIT-WEB-FLAC-1994-OBZEN 353,52 MB OBZEN 2024-04-03
 KMFDM-XTORT-16BIT-WEB-FLAC-1996-OBZEN 329,16 MB OBZEN 2024-04-03
 KMFDM-Wurst-16BIT-WEB-FLAC-2010-OBZEN 536,30 MB OBZEN 2024-04-03
 KMFDM-WTF-16BIT-WEB-FLAC-2011-OBZEN 348,41 MB OBZEN 2024-04-03
 KMFDM-What_Do_You_Know_Deutschland-16BIT-WEB-FLAC-1986-OBZEN 432,89 MB OBZEN 2024-04-03
 KMFDM-We_Are-16BIT-WEB-FLAC-2014-OBZEN 678,49 MB OBZEN 2024-04-03
 KMFDM-Tohuvabohu-16BIT-WEB-FLAC-2007-OBZEN 377,95 MB OBZEN 2024-04-03
 KMFDM-Symbols-16BIT-WEB-FLAC-1997-OBZEN 390,19 MB OBZEN 2024-04-03
 KMFDM-Sturm_and_Drang_Tour_2002-16BIT-WEB-FLAC-2002-OBZEN 409,09 MB OBZEN 2024-04-03
 KMFDM-Salvation-EP-16BIT-WEB-FLAC-2015-OBZEN 207,28 MB OBZEN 2024-04-03
 KMFDM-Ruck_Zuck-EP-16BIT-WEB-FLAC-2005-OBZEN 277,81 MB OBZEN 2024-04-03
 KMFDM-Our_Time_Will_Come-16BIT-WEB-FLAC-2014-OBZEN 335,71 MB OBZEN 2024-04-03
 KMFDM-Opium-16BIT-WEB-FLAC-1984-OBZEN 285,41 MB OBZEN 2024-04-03
 KMFDM-Nihil-16BIT-WEB-FLAC-1995-OBZEN 369,43 MB OBZEN 2024-04-03
 KMFDM-Naive-16BIT-WEB-FLAC-1990-OBZEN 564,45 MB OBZEN 2024-04-03
 KMFDM-Money-16BIT-WEB-FLAC-1992-OBZEN 397,70 MB OBZEN 2024-04-03
 KMFDM-Kunst-16BIT-WEB-FLAC-2013-OBZEN 327,21 MB OBZEN 2024-04-03
 KMFDM-Krieg-16BIT-WEB-FLAC-2010-OBZEN 405,35 MB OBZEN 2024-04-03
 KMFDM-Krank-EP-16BIT-WEB-FLAC-2011-OBZEN 160,44 MB OBZEN 2024-04-03
 KMFDM-HYENA-16BIT-WEB-FLAC-2022-OBZEN 282,20 MB OBZEN 2024-04-03
 KMFDM-HELL_YEAH-24BIT-44KHZ-WEB-FLAC-2017-OBZEN 646,86 MB OBZEN 2024-04-03
 KMFDM-Hau_Ruck-16BIT-WEB-FLAC-2005-OBZEN 371,51 MB OBZEN 2024-04-03
 KMFDM-Greatest_Shit-16BIT-WEB-FLAC-2010-OBZEN 1,05 GB OBZEN 2024-04-03
 KMFDM-EXTRA_Volume_3-16BIT-WEB-FLAC-2008-OBZEN 984,68 MB OBZEN 2024-04-03
 KMFDM-EXTRA_Volume_2-16BIT-WEB-FLAC-2008-OBZEN 965,13 MB OBZEN 2024-04-03
 KMFDM-EXTRA_Volume_1-16BIT-WEB-FLAC-2008-OBZEN 987,15 MB OBZEN 2024-04-03
 KMFDM-Dont_Blow_Your_Top-16BIT-WEB-FLAC-1988-OBZEN 339,86 MB OBZEN 2024-04-03
 KMFDM-Brimborium-16BIT-WEB-FLAC-2008-OBZEN 486,37 MB OBZEN 2024-04-03
 KMFDM-Boots-EP-16BIT-WEB-FLAC-2002-OBZEN 117,99 MB OBZEN 2024-04-03
 KMFDM-Blitz-DELUXE_EDITION-16BIT-WEB-FLAC-2009-OBZEN 429,51 MB OBZEN 2024-04-03
 KMFDM-Attak-16BIT-WEB-FLAC-2002-OBZEN 354,30 MB OBZEN 2024-04-03
 KMFDM-Amnesia-EP-16BIT-WEB-FLAC-2012-OBZEN 180,37 MB OBZEN 2024-04-03
 KMFDM-Adios-EP-16BIT-WEB-FLAC-1999-OBZEN 363,42 MB OBZEN 2024-04-03
 King_Bliss-Golgo_19-WEB-2024-FTD 69,81 MB FTD 2024-04-03
 King_Author-Mercenary_Sessions_4_Honorable_Discharge_Streaming_Edition-WEB-2024-FTD 78,02 MB FTD 2024-04-03
 Killapaxx_-_Complex_Phonk-(4068992043555)-SINGLE-WEB-2024-ZzZz 5,43 MB ZzZz 2024-04-03
 Ketama-Vengo_De_Borrachera-(862243-2)-ES-PROMO-CDS-FLAC-1993-CEBAD 70,51 MB CEBAD 2024-04-03
 Ketama-Vengo_De_Borrachera-(862243-2)-ES-PROMO-CDS-1993-CEB 25,13 MB CEB 2024-04-03
 Kennie_Ken-Jesus_On_My_Mind-WEB-2021-RAGEMP3 113,92 MB RAGEMP3 2024-04-03
 Kennie_Ken-Bless_The_Streets-WEB-2024-RAGEMP3 119,38 MB RAGEMP3 2024-04-03
 Karassimeon-STSFXN-(OMBRAINTL029)-SINGLE-WEB-2024-EBM 10,81 MB EBM 2024-04-03
 Kapote--Electric_Slide_EP-WEB-2024-OMA 40,79 MB OMA 2024-04-03
 Junior_Legh--Tartaria_EP-(SLR226)-WEB-2024-dh 62,27 MB dh 2024-04-03
 Juicy_J-North_Memphis_Like_Me_(Remix)-Single-WEB-2009-UVU 18,21 MB UVU 2024-04-03
 Juan_Pardo-Lo_Nuestro_Muere-(8760252)-ES-CDS-FLAC-1992-CEBAD 100,16 MB CEBAD 2024-04-03
 Juan_Pardo-Lo_Nuestro_Muere-(8760252)-ES-CDS-1992-CEB 31,66 MB CEB 2024-04-03
 Juantxu_Dj.-Paradox.-(HR0027)-WEB-2024-PTC 33,80 MB PTC 2024-04-03
 Joe_Haywood-When_You_Look_In_The_Mirror-Single-WEB-1965-UVU 11,92 MB UVU 2024-04-03
 Joe_Haywood-Strong_Feeling-Im_Walkin-Single-WEB-1970-UVU 14,12 MB UVU 2024-04-03
 Joe_Haywood-Say_You_Will-Sadie_Mae-Single-WEB-1967-UVU 14,38 MB UVU 2024-04-03
 Joe_Haywood-Play_A_Cornbread_Song_For_Me_And_My_Baby-Single-WEB-1967-UVU 13,50 MB UVU 2024-04-03
 Joe_Haywood-In_Your_Heart_You_Know_I_Love_You-Single-WEB-1971-UVU 16,71 MB UVU 2024-04-03
 Joe_Haywood-Ghost_Of_Love-Debt_Of_Love-Single-WEB-1968-UVU 12,68 MB UVU 2024-04-03
 JNXD_And_Tellem_-_Insomnia_(Edit)-SINGLE-WEB-2024-UTNG 7,83 MB UTNG 2024-04-03
 Jesse_T_Connerley_-_Unique-(5063483244854)-WEB-2024-ZzZz 64,88 MB ZzZz 2024-04-03
 JBLLSTRS-Granada-(DZB689)-WEB-2024-PTC 34,31 MB PTC 2024-04-03
 Jay_Loots--Panegyric_To_House_EP-(SVR092)-WEB-2024-dh 51,29 MB dh 2024-04-03
 Jay_Jay-No_Drama_EP-(SSLD190)-WEB-2024-PTC 47,10 MB PTC 2024-04-03
 Jaws-The_Ceiling-16BIT-WEB-FLAC-2019-OBZEN 291,46 MB OBZEN 2024-04-03
 Jaws-Simplicity-16BIT-WEB-FLAC-2016-OBZEN 292,17 MB OBZEN 2024-04-03
 Jaws-Milkshake-EP-24BIT-44KHZ-WEB-FLAC-2013-OBZEN 310,32 MB OBZEN 2024-04-03
 Jaws-If_It_Wasnt_For_My_Friends_Things_Could_Be_Different-EP-24BIT-48KHZ-WEB-FLAC-2023-OBZEN 191,63 MB OBZEN 2024-04-03
 Jaws-Gold-EP-24BIT-44KHZ-WEB-FLAC-2013-OBZEN 128,84 MB OBZEN 2024-04-03
 Jaws-Be_Slowly-16BIT-WEB-FLAC-2014-OBZEN 301,04 MB OBZEN 2024-04-03
 Japanese_Breakfast-Psychopomp-24BIT-44KHZ-WEB-FLAC-2016-OBZEN 289,39 MB OBZEN 2024-04-03
 Japanese_Breakfast-Jubilee-24BIT-44KHZ-WEB-FLAC-2021-OBZEN 435,01 MB OBZEN 2024-04-03
 Japanese_Breakfast-Japanese_Breakfast_On_Audiotree_Live-EP-16BIT-WEB-FLAC-2016-OBZEN 117,70 MB OBZEN 2024-04-03
 James_Taylor-Walking_Man-REMASTERED-24BIT-192KHZ-WEB-FLAC-2019-OBZEN 1,15 GB OBZEN 2024-04-03
 James_Taylor-Thats_Why_Im_Here-16BIT-WEB-FLAC-1985-OBZEN 216,79 MB OBZEN 2024-04-03
 James_Taylor-Sweet_Baby_James-REMASTERED-24BIT-192KHZ-WEB-FLAC-2019-OBZEN 1,14 GB OBZEN 2024-04-03
 James_Taylor-One_Man_Dog-REMASTERED-24BIT-192KHZ-WEB-FLAC-2019-OBZEN 1,26 GB OBZEN 2024-04-03
 James_Taylor-One_Man_Band_(Live)-24BIT-44KHZ-WEB-FLAC-2007-OBZEN 805,54 MB OBZEN 2024-04-03
[1].2.
Work time: 0.02816 seconds

Contact: 0day@bk.ru

Рейтинг@Mail.ru